[[{"header":{"parameterUnit":"m.s-1","parameterCategory":1,"la1":30.2991,"la2":30.254,"lo1":-89.0895,"lo2":-89.0444,"dx":0.0017,"dy":0.0017,"nx":28,"ny":28,"refTime":"2023-01-30T15:00:00:Z","depth":0,"parameterNumber":2,"parameterNumberName":"U-component_of_WINDS"},"data":[0,0,0,0,0,0,0,0,0,0,0,0,0,0,0,0,0,0,0,0,0,0,0,0,0,0,0,0,0,0,0,0,0,0,0,0,0,0,0,0,0,0,0,0,0,0,0,0,0,0,0,0,0,0,0,0,0,0,0.027,0.027,0,0.0281,0.0281,0.0281,0.0311,0.0312,0.0313,0.0313,0.0323,0.0322,0.0322,0,0,0,0,0,0,0,0,0,0,0,0,0,0.0274,0.0274,0.027,0.027,0.027,0.0281,0.0281,0.0281,0.0311,0.0312,0.0313,0.0314,0.0323,0.0323,0.0322,0,0,0,0,0,0,0,0,0,0,0,0,0,0.0277,0.0274,0.027,0.0287,0.0288,0.0281,0.0281,0.0281,0.0311,0.0312,0.0313,0.0314,0.0323,0.0323,0.0322,0.0299,0,0,0.032,0.032,0,0,0,0,0,0,0,0,0.0277,0.0277,0.0284,0.0286,0.0287,0.0296,0.0286,0.0287,0.0311,0.0302,0.0313,0.0315,0.0313,0.0313,0.0313,0.0299,0.0299,0.032,0.032,0.032,0.032,0,0,0,0,0,0,0,0.0277,0.0277,0.0274,0.0284,0.0286,0.0293,0.0295,0.0286,0.0302,0.0303,0.0306,0.0306,0.0314,0.0313,0.0313,0.03,0.032,0.032,0.0319,0.0319,0.0266,0.0265,0,0,0,0,0,0,0.0274,0.0276,0.0274,0.0275,0.0285,0.0292,0.0294,0.0292,0.0302,0.0305,0.0306,0.0308,0.0314,0.0314,0.0314,0.0287,0.032,0.0319,0.0319,0.0267,0.0266,0.0265,0,0,0,0,0,0,0.0274,0.0274,0.0274,0.0276,0.0277,0.0291,0.0289,0.0292,0.0291,0.0304,0.0307,0.0302,0.0315,0.0315,0.0302,0.0287,0.0319,0.0318,0.0268,0.0267,0.0265,0.0232,0,0,0,0,0,0,0.0274,0.0274,0.0265,0.0276,0.0276,0.0262,0.0288,0.0291,0.029,0.0294,0.0302,0.0304,0.0316,0.0303,0.0301,0.0287,0.0318,0.027,0.0268,0.0266,0.0234,0.0229,0.0225,0,0,0,0,0,0.0275,0.0255,0.0265,0.0264,0.0266,0.0261,0.0261,0.0276,0.0289,0.0281,0.0289,0.0304,0.0289,0.0301,0.03,0.0285,0.0271,0.0268,0.0266,0.0236,0.023,0.0225,0,0,0,0,0,0,0.0243,0.0257,0.0268,0.0252,0.0255,0.0266,0.0256,0.0269,0.0268,0.0271,0.0288,0.029,0.0274,0.0279,0.0292,0.0263,0.0282,0.028,0.026,0.0255,0.025,0.0249,0.0317,0,0,0,0,0,0.0234,0.0229,0.0242,0.0226,0.0227,0.0241,0.0239,0.025,0.0254,0.0255,0.0263,0.0265,0.0261,0.0258,0.0256,0.0235,0.0237,0.0225,0.022,0.0216,0.0213,0.0202,0.0196,0.0257,0.0257,0.0257,0,0,0.0215,0.0223,0.0218,0.022,0.0224,0.0217,0.0242,0.0235,0.023,0.0254,0.0243,0.0248,0.0252,0.0235,0.0228,0.0238,0.0197,0.0213,0.021,0.0209,0.0199,0.0193,0.0188,0.0255,0.0255,0.0255,0,0,0.0178,0.0184,0.0171,0.0174,0.018,0.0189,0.0186,0.0196,0.02,0.0189,0.0207,0.0201,0.0194,0.0196,0.0197,0.016,0.0173,0.0159,0.0134,0.0123,0.0118,0.0114,0.01,0.0095,0.0156,0.0156,0.0156,0,0.0154,0.0146,0.0163,0.0154,0.0154,0.0176,0.0163,0.0165,0.0169,0.0168,0.018,0.0171,0.0176,0.0159,0.015,0.015,0.0146,0.0158,0.0118,0.0114,0.011,0.0097,0.0092,0.0154,0.0154,0.0154,0.0154,0,0.0116,0.0111,0.01,0.0103,0.0102,0.0091,0.0105,0.0102,0.0113,0.012,0.0108,0.0114,0.0113,0.011,0.012,0.0095,0.0101,0.0115,0.0135,0.0102,0.009,0.0086,0.0151,0.0152,0.0152,0.0153,0,0,0.006,0.0073,0.0068,0.007,0.0078,0.0073,0.0063,0.0062,0.0058,0.006,0.0052,0.0045,0.0058,0.0058,0.0069,0.0059,0.0029,0.0074,0.0074,0.0065,0.0,-0.0011,-0.0017,0.0038,0.0037,0.0036,-0.0,0,0.0024,0.0008,0.0022,0.0003,-0.0003,0.0018,0.0009,0.0013,0.002,0.0015,0.0023,0.0018,0.0035,0.0036,0.0027,0.0034,0.0016,0.0037,0.0029,0.0029,0.0027,-0.0023,-0.0034,-0.0069,-0.0005,-0.0006,-0.0006,0,-0.0019,-0.0019,-0.0039,-0.003,-0.0032,-0.004,-0.004,-0.0044,-0.004,-0.0035,-0.0035,-0.0021,-0.0032,-0.0012,-0.0026,-0.0012,-0.0014,-0.0011,-0.0012,-0.0013,0.0009,-0.0025,-0.008,-0.0085,-0.0013,-0.0013,-0.0012,0,-0.006,-0.0064,-0.0077,-0.0076,-0.0066,-0.0072,-0.0068,-0.0063,-0.0065,-0.0065,-0.0066,-0.0068,-0.0069,-0.0071,-0.0059,-0.0045,-0.0075,-0.0054,-0.0071,-0.0072,-0.0079,-0.0079,-0.0135,-0.008,-0.0079,-0.0079,-0.0079,0,-0.0101,-0.0114,-0.0095,-0.0102,-0.0117,-0.01,-0.0115,-0.0109,-0.0105,-0.0112,-0.0094,-0.0101,-0.0084,-0.0089,-0.008,-0.0094,-0.0094,-0.009,-0.0088,-0.0092,-0.0093,-0.0094,-0.0092,-0.0081,-0.008,-0.008,-0.008,0,-0.0149,-0.0136,-0.0149,-0.0138,-0.0136,-0.0147,-0.0138,-0.0145,-0.0137,-0.0146,-0.0147,-0.0134,-0.014,-0.0128,-0.0132,-0.0125,-0.0145,-0.0138,-0.0146,-0.0144,-0.0163,-0.0161,-0.0222,-0.023,-0.0169,-0.0169,-0.017,0,-0.0177,-0.0186,-0.0176,-0.0179,-0.0177,-0.0182,-0.0183,-0.0168,-0.017,-0.0167,-0.0174,-0.0178,-0.018,-0.019,-0.0182,-0.0185,-0.0179,-0.02,-0.0179,-0.0183,-0.018,-0.018,-0.0181,-0.0204,-0.0205,-0.0206,-0.0206,0,-0.0227,-0.022,-0.0223,-0.0224,-0.0226,-0.0226,-0.0224,-0.0228,-0.0211,-0.0215,-0.022,-0.0222,-0.0226,-0.023,-0.0231,-0.0228,-0.0215,-0.0213,-0.0217,-0.0222,-0.0226,-0.0225,-0.0158,-0.0211,-0.0211,-0.021,-0.021,-0.021,-0.0266,-0.0274,-0.0268,-0.0272,-0.0269,-0.0268,-0.0275,-0.0267,-0.0271,-0.0272,-0.0263,-0.027,-0.0267,-0.0267,-0.0265,-0.0271,-0.0262,-0.0268,-0.0269,-0.0271,-0.0275,-0.0225,-0.0271,-0.0271,-0.0271,-0.0271,-0.0271,0,-0.0316,-0.0312,-0.0315,-0.0314,-0.0317,-0.0303,-0.0301,-0.0305,-0.0311,-0.0308,-0.0311,-0.0317,-0.0321,-0.0313,-0.0317,-0.0323,-0.0317,-0.0324,-0.0324,-0.0324,-0.0282,-0.0279,-0.0329,-0.0329,-0.0329,-0.0329,-0.0329,-0.0329,-0.0343,-0.0355,-0.0348,-0.0359,-0.0354,-0.0361,-0.0361,-0.0361,-0.0358,-0.0366,-0.0369,-0.0364,-0.0359,-0.0362,-0.0365,-0.0363,-0.0365,-0.0375,-0.0371,-0.0332,-0.0327,-0.0321,-0.0318,-0.0375,-0.0376,-0.0411,-0.0412,-0.0412]},{"header":{"parameterUnit":"m.s-1","parameterCategory":1,"la1":30.2991,"la2":30.254,"lo1":-89.0895,"lo2":-89.0444,"dx":0.0017,"dy":0.0017,"nx":28,"ny":28,"refTime":"2023-01-30T15:00:00:Z","depth":0,"parameterNumber":3,"parameterNumberName":"V-component_of_WINDS"},"data":[0,0,0,0,0,0,0,0,0,0,0,0,0,0,0,0,0,0,0,0,0,0,0,0,0,0,0,0,0,0,0,0,0,0,0,0,0,0,0,0,0,0,0,0,0,0,0,0,0,0,0,0,0,0,0,0,0,0,-0.9442,-0.9441,0,-0.9361,-0.936,-0.9359,-0.9346,-0.9347,-0.9347,-0.9348,-0.9257,-0.9254,-0.9251,0,0,0,0,0,0,0,0,0,0,0,0,0,-0.958,-0.9578,-0.9442,-0.9441,-0.944,-0.9361,-0.936,-0.9358,-0.9346,-0.9347,-0.9348,-0.9349,-0.9258,-0.9255,-0.9251,0,0,0,0,0,0,0,0,0,0,0,0,0,-0.9511,-0.9577,-0.9442,-0.9424,-0.9422,-0.9361,-0.936,-0.9358,-0.9346,-0.9347,-0.9348,-0.9349,-0.926,-0.9255,-0.9251,-0.9199,0,0,-0.9236,-0.9234,0,0,0,0,0,0,0,0,-0.9515,-0.9506,-0.9428,-0.9425,-0.9423,-0.9365,-0.9375,-0.9305,-0.9345,-0.9374,-0.9348,-0.935,-0.9292,-0.9284,-0.9267,-0.9195,-0.9191,-0.9236,-0.9233,-0.9231,-0.923,0,0,0,0,0,0,0,-0.952,-0.951,-0.9409,-0.9427,-0.9423,-0.9418,-0.941,-0.9362,-0.9327,-0.9372,-0.9371,-0.9362,-0.929,-0.9271,-0.9264,-0.919,-0.9236,-0.9232,-0.9229,-0.9227,-0.9074,-0.9073,0,0,0,0,0,0,-0.9529,-0.9514,-0.9412,-0.9407,-0.9473,-0.9415,-0.9405,-0.9382,-0.9328,-0.9321,-0.9361,-0.9362,-0.9279,-0.927,-0.9261,-0.9199,-0.9231,-0.9227,-0.9224,-0.9075,-0.9074,-0.9073,0,0,0,0,0,0,-0.9532,-0.952,-0.9415,-0.946,-0.9446,-0.9411,-0.9385,-0.938,-0.9361,-0.932,-0.9313,-0.9348,-0.9279,-0.9268,-0.9216,-0.9196,-0.9225,-0.922,-0.9077,-0.9075,-0.9073,-0.9074,0,0,0,0,0,0,-0.9536,-0.9521,-0.9503,-0.946,-0.9444,-0.9373,-0.9384,-0.9377,-0.9353,-0.9353,-0.9306,-0.9299,-0.9279,-0.9223,-0.9211,-0.919,-0.9217,-0.9079,-0.9076,-0.9074,-0.9075,-0.9072,-0.9069,0,0,0,0,0,-0.9541,-0.9504,-0.9502,-0.9489,-0.9421,-0.9372,-0.9363,-0.9343,-0.9352,-0.9332,-0.9306,-0.93,-0.92,-0.9218,-0.9204,-0.9181,-0.908,-0.9077,-0.9074,-0.9076,-0.9072,-0.9069,0,0,0,0,0,0,-0.9541,-0.9498,-0.9495,-0.9443,-0.9412,-0.937,-0.9344,-0.9339,-0.9302,-0.9303,-0.9278,-0.9267,-0.9217,-0.9193,-0.9214,-0.913,-0.914,-0.9135,-0.9147,-0.9143,-0.914,-0.9146,-0.9213,0,0,0,0,0,-0.9536,-0.9503,-0.9465,-0.9423,-0.9408,-0.9379,-0.9357,-0.9345,-0.931,-0.9296,-0.9266,-0.9231,-0.9191,-0.9166,-0.9127,-0.9072,-0.9061,-0.905,-0.9047,-0.9044,-0.9039,-0.901,-0.9004,-0.9063,-0.9063,-0.9063,0,0,-0.9524,-0.9496,-0.9475,-0.9423,-0.9397,-0.9361,-0.9368,-0.9329,-0.9302,-0.9289,-0.924,-0.9217,-0.9175,-0.9122,-0.9097,-0.9101,-0.9021,-0.9041,-0.9039,-0.9035,-0.9006,-0.9001,-0.8996,-0.9061,-0.9062,-0.9062,0,0,-0.9483,-0.9459,-0.9422,-0.9397,-0.9359,-0.9341,-0.9332,-0.9291,-0.9277,-0.9227,-0.9218,-0.9184,-0.9116,-0.9088,-0.9064,-0.9016,-0.9009,-0.9004,-0.8988,-0.8959,-0.8955,-0.895,-0.8933,-0.8928,-0.8999,-0.8999,-0.8999,0,-0.9471,-0.9419,-0.9403,-0.9366,-0.9343,-0.9333,-0.9295,-0.9271,-0.9221,-0.9205,-0.9211,-0.9128,-0.9099,-0.904,-0.9029,-0.901,-0.8998,-0.9009,-0.8957,-0.8953,-0.8948,-0.8932,-0.8926,-0.8999,-0.8999,-0.8999,-0.8999,0,-0.9407,-0.9372,-0.9346,-0.9302,-0.9277,-0.9239,-0.9215,-0.9191,-0.9181,-0.9162,-0.9112,-0.9078,-0.9033,-0.9018,-0.9007,-0.8957,-0.8962,-0.8963,-0.8973,-0.8943,-0.8927,-0.892,-0.8999,-0.8999,-0.8999,-0.8999,0,0,-0.9362,-0.9313,-0.9304,-0.9285,-0.9244,-0.9214,-0.9176,-0.9136,-0.9115,-0.9082,-0.9049,-0.8993,-0.8995,-0.8969,-0.8955,-0.893,-0.8895,-0.8934,-0.8932,-0.8928,-0.8839,-0.8838,-0.8831,-0.889,-0.8889,-0.8888,-0.8842,0,-0.9317,-0.9252,-0.9237,-0.9181,-0.9147,-0.9139,-0.9106,-0.9077,-0.9058,-0.9025,-0.9003,-0.8965,-0.897,-0.8954,-0.8929,-0.8904,-0.8876,-0.8907,-0.8858,-0.8857,-0.8869,-0.8823,-0.8822,-0.878,-0.8836,-0.8835,-0.8834,0,-0.9255,-0.9224,-0.9166,-0.9131,-0.9117,-0.9087,-0.905,-0.902,-0.8986,-0.8974,-0.8946,-0.8935,-0.8894,-0.8908,-0.885,-0.8872,-0.8851,-0.8836,-0.8834,-0.8828,-0.8843,-0.8816,-0.8766,-0.876,-0.8824,-0.8825,-0.8826,0,-0.9229,-0.9172,-0.9131,-0.9114,-0.9073,-0.9053,-0.9034,-0.9002,-0.8979,-0.8945,-0.893,-0.8891,-0.887,-0.8839,-0.8818,-0.8829,-0.8762,-0.8773,-0.875,-0.8751,-0.8736,-0.8737,-0.8682,-0.8723,-0.8723,-0.8723,-0.8723,0,-0.918,-0.9144,-0.9119,-0.9093,-0.9053,-0.9036,-0.8995,-0.8976,-0.8948,-0.8917,-0.8907,-0.8877,-0.8851,-0.8818,-0.8801,-0.8756,-0.8746,-0.8735,-0.873,-0.8736,-0.8737,-0.8721,-0.8723,-0.8721,-0.8722,-0.8722,-0.8722,0,-0.9143,-0.9125,-0.9079,-0.9045,-0.9036,-0.9008,-0.8977,-0.8951,-0.8934,-0.8895,-0.8884,-0.8855,-0.8816,-0.8793,-0.8741,-0.873,-0.8681,-0.8678,-0.8694,-0.8692,-0.867,-0.8672,-0.8602,-0.8592,-0.864,-0.864,-0.8639,0,-0.9113,-0.9086,-0.9051,-0.9031,-0.9013,-0.898,-0.8959,-0.8941,-0.8917,-0.8879,-0.8857,-0.8818,-0.8786,-0.8723,-0.8696,-0.8658,-0.8653,-0.8632,-0.8647,-0.8654,-0.8653,-0.8655,-0.8652,-0.8629,-0.8628,-0.8628,-0.8627,0,-0.9061,-0.9054,-0.9024,-0.8992,-0.8967,-0.8939,-0.8911,-0.8895,-0.8872,-0.8847,-0.8808,-0.8784,-0.8734,-0.8695,-0.8655,-0.8633,-0.8626,-0.8623,-0.8616,-0.862,-0.8631,-0.8625,-0.8686,-0.8624,-0.8625,-0.8625,-0.8625,-0.8625,-0.9026,-0.9003,-0.8975,-0.8943,-0.8921,-0.8896,-0.8871,-0.8852,-0.882,-0.8781,-0.8771,-0.8731,-0.8699,-0.8645,-0.8623,-0.859,-0.8593,-0.8582,-0.8579,-0.8577,-0.8577,-0.8637,-0.8582,-0.8582,-0.8582,-0.8582,-0.8582,0,-0.8974,-0.8957,-0.8928,-0.8892,-0.8866,-0.8865,-0.8835,-0.8813,-0.8779,-0.8751,-0.8721,-0.8677,-0.864,-0.8612,-0.8573,-0.8552,-0.8548,-0.8543,-0.8544,-0.8539,-0.8576,-0.8586,-0.8547,-0.8547,-0.8547,-0.8547,-0.8547,-0.8547,-0.8944,-0.8905,-0.8895,-0.8845,-0.8827,-0.879,-0.8773,-0.875,-0.8728,-0.8681,-0.8652,-0.8635,-0.8606,-0.8566,-0.8532,-0.8525,-0.8511,-0.8506,-0.8498,-0.8532,-0.8536,-0.854,-0.855,-0.8503,-0.8503,-0.8463,-0.8463,-0.8463]}]]